DELTON-WX Weather Reports


time (UTC)temp
F
wind
direction
speed
knots
gust
knots
rain 1hr
in
rain 24hr
in
rain mn
in
humidity
%
barometer
mb
20260503210115 57 220 14.8 0.0 0.00 0.00 0.00 56 977.5
20260503204546 57 224 14.8 0.0 0.00 0.00 0.00 53 978.4
20260503203105 57 228 15.6 0.0 0.00 0.00 0.00 56 978.1
20260503201546 57 233 16.5 0.0 0.00 0.00 0.00 56 978.0
20260503200116 56 236 15.6 0.0 0.00 0.00 0.00 56 978.0
20260503194546 56 239 16.5 0.0 0.00 0.00 0.00 51 978.5
20260503193108 57 241 17.4 0.0 0.00 0.00 0.00 51 978.5
20260503191547 57 241 16.5 0.0 0.00 0.00 0.00 51 978.5
20260503190119 57 238 17.4 0.0 0.00 0.00 0.00 51 978.5
20260503184547 57 237 17.4 0.0 0.00 0.00 0.00 47 979.3
20260503183556 58 234 17.4 0.0 0.00 0.00 0.00 47 979.3
20260503181546 59 239 18.2 0.0 0.00 0.00 0.00 43 979.5
20260503180121 59 235 19.1 0.0 0.00 0.00 0.00 43 979.5
20260503174545 58 242 18.2 0.0 0.00 0.00 0.00 49 980.0
20260503173106 58 240 19.1 0.0 0.00 0.00 0.00 46 979.3
20260503170115 58 240 17.4 0.0 0.00 0.00 0.00 46 979.4
20260503160123 55 236 15.6 0.0 0.00 0.00 0.00 52 979.0
20260503150119 53 240 14.8 0.0 0.00 0.00 0.00 56 979.8
20260503140124 50 233 14.8 0.0 0.00 0.00 0.00 57 979.8
20260503130119 45 235 11.3 0.0 0.00 0.00 0.00 61 980.2
20260503120125 41 223 9.6 0.0 0.00 0.00 0.00 65 980.4
20260503110119 38 229 7.8 0.0 0.00 0.00 0.00 67 979.4
20260503100120 36 220 7.0 0.0 0.00 0.00 0.00 69 979.4
20260503090115 35 210 6.1 0.0 0.00 0.00 0.00 72 979.5
20260503081546 35 200 7.0 0.0 0.00 0.00 0.00 69 979.9
20260503080111 35 196 7.0 0.0 0.00 0.00 0.00 71 979.5
20260503071545 35 185 6.1 0.0 0.00 0.00 0.00 68 980.1
20260503070114 35 187 6.1 0.0 0.00 0.00 0.00 68 980.1
20260503060127 36 190 5.2 0.0 0.00 0.00 0.00 67 981.0
20260503054546 36 196 5.2 0.0 0.00 0.00 0.00 67 981.5
20260503051545 35 192 4.3 0.0 0.00 0.00 0.00 70 981.7
20260503050115 35 196 4.3 0.0 0.00 0.00 0.00 70 981.7
20260503044545 35 198 4.3 0.0 0.00 0.00 0.00 66 982.0
20260503043105 35 200 4.3 0.0 0.00 0.00 0.00 66 981.5
20260503041546 36 200 4.3 0.0 0.00 0.00 0.00 66 981.5
20260503040117 36 207 4.3 0.0 0.00 0.00 0.00 66 981.5
20260503034545 36 216 3.5 0.0 0.00 0.00 0.00 63 982.5
20260503033106 36 218 4.3 0.0 0.00 0.00 0.00 64 982.8
20260503031545 37 214 4.3 0.0 0.00 0.00 0.00 64 982.8
20260503030116 38 219 4.3 0.0 0.00 0.00 0.00 64 982.8
20260503024545 38 218 4.3 0.0 0.00 0.00 0.00 61 983.2
20260503023105 38 225 3.5 0.0 0.00 0.00 0.00 66 983.3
20260503021545 38 230 4.3 0.0 0.00 0.00 0.00 66 983.2
20260503020115 39 234 4.3 0.0 0.00 0.00 0.00 66 983.2
20260503014545 39 240 4.3 0.0 0.00 0.00 0.00 61 982.7
20260503013103 39 245 4.3 0.0 0.00 0.00 0.00 61 982.7
20260503011545 40 252 3.5 0.0 0.00 0.00 0.00 61 982.7
20260503010113 41 257 4.3 0.0 0.00 0.00 0.00 61 982.7
20260503004545 41 262 3.5 0.0 0.00 0.00 0.00 51 983.4
20260503003059 42 259 2.6 0.0 0.00 0.00 0.00 51 983.6
20260503001545 43 286 2.6 0.0 0.00 0.00 0.00 51 983.6
20260503000116 43 292 3.5 0.0 0.00 0.00 0.00 51 983.6
20260502234546 44 296 5.2 0.0 0.00 0.00 0.00 42 983.4
20260502233058 45 283 5.2 0.0 0.00 0.00 0.00 44 983.5
20260502231546 45 285 6.1 0.0 0.00 0.00 0.00 44 983.5
20260502230113 46 286 7.0 0.0 0.00 0.00 0.00 44 983.5
20260502224546 46 285 7.8 0.0 0.00 0.00 0.00 43 983.9
20260502223104 46 283 8.7 0.0 0.00 0.00 0.00 44 984.6
20260502221547 46 284 9.6 0.0 0.00 0.00 0.00 44 984.6
20260502220113 46 283 8.7 0.0 0.00 0.00 0.00 44 984.6
20260502214546 46 285 9.6 0.0 0.00 0.00 0.00 46 984.7
20260502213104 46 280 8.7 0.0 0.00 0.00 0.00 43 984.3
20260502211546 46 277 8.7 0.0 0.00 0.00 0.00 43 984.3